Regional Weather Roundup
Issued by NWS

Home | Current Version | Previous Version | Text Only | Print | Product List | Glossary On
Versions: 1 2 3 4 5 6 7 8 9 10 11 12 13 14 15 16 17 18 19 20 21 22 23 24 25 26 27 28 29 30 31 32 33 34 35 36 37 38 39 40 41 42 43 44 45 46 47 48 49 50
000
ASUS44 KOUN 261410
RWROK

WEATHER ROUNDUP FOR OKLAHOMA
NATIONAL WEATHER SERVICE NORMAN OK
900 AM CDT TUE JUL 26 2016

NOTE: "FAIR" INDICATES FEW OR NO CLOUDS BELOW 12,000 FEET WITH NO
      SIGNIFICANT WEATHER AND/OR OBSTRUCTIONS TO VISIBILITY.

OKZ001>007-009>012-014-015-017-261500-
NORTHWEST OKLAHOMA AND THE PANHANDLE

CITY           SKY/WX    TMP DP  RH WIND       PRES   REMARKS
GAGE           MOSUNNY   77  70  79 CALM      30.07R
GUYMON         CLOUDY    72  68  87 CALM      30.12S
ENID/WOODRING  PTSUNNY   77  73  88 N9        30.02R
$$

OKZ016-021>023-033>039-044-045-261500-
SOUTHWEST OKLAHOMA

CITY           SKY/WX    TMP DP  RH WIND       PRES   REMARKS
LAWTON/REGL    CLOUDY    79  71  76 E9        30.02R
FREDERICK      CLOUDY    79  73  82 SE7       29.99R
CLINTON        MOSUNNY   81  71  71 S7        30.05S
HOBART         CLOUDY    77  75  93 SE5       30.03S FOG
$$

OKZ018>020-024>031-261500-
CENTRAL OKLAHOMA

CITY           SKY/WX    TMP DP  RH WIND       PRES   REMARKS
OKLAHOMA CITY  PTSUNNY   76  73  91 SE8       30.03R
OKC/WILEY POST PTSUNNY   76  72  87 SE9       30.03R
STILLWATER     CLOUDY    76  73  91 NE3       30.03R
GUTHRIE        CLOUDY    77  74  90 MISG      30.02R
$$

OKZ008-013-054>072-261500-
NORTHEAST OKLAHOMA

CITY           SKY/WX    TMP DP  RH WIND       PRES   REMARKS
TULSA          CLOUDY    80  76  87 NE5       29.99R
TULSA/JONES    CLOUDY    80  76  87 N6        30.00R
PONCA CITY     CLOUDY    80  73  79 E8        30.02R
BARTLESVILLE   CLOUDY    79  74  84 NE5       30.02S
MUSKOGEE       MOSUNNY   80  75  84 SE3       30.01R
$$

OKZ032-040>043-046>053-073>077-261500-
SOUTH CENTRAL/SOUTHEAST OKLAHOMA

CITY           SKY/WX    TMP DP  RH WIND       PRES   REMARKS
ARDMORE/DWNTWN MOSUNNY   81  70  69 SE5       30.00R
MCALESTER      MOSUNNY   83  75  77 VRB5      30.01S HX  90
$$





USA.gov is the U.S. government's official web portal to all federal, state and local government web resources and services.